Weather History for KMWO - February, 2014

Change the Weather History Date:

Tuesday, February 18, 2014

  Actual Average (KDAY) Record (KDAY)
Temperature  
Mean Temperature 41 °F 32 °F  
Max Temperature 50 °F 40 °F 64 °F (1948)
Min Temperature 32 °F 24 °F -9 °F (1900)
Degree Days  
Heating Degree Days 24 33  
Month to date heating degree days 634  
Since 1 July heating degree days 3957  
Cooling Degree Days 0 0  
Month to date cooling degree days 0  
Year to date cooling degree days 0  
Moisture  
Dew Point 26 °F    
Average Humidity 61    
Maximum Humidity 83    
Minimum Humidity 32    
Precipitation  
Precipitation 0.00 in 0.07 in 0.80 in (1914)
Month to date precipitation 1.43  
Year to date precipitation 4.14  
Snow  
Snow 0.00 in 0.20 in 3.50 in (1908)
Month to date snowfall 3.9  
Since 1 July snowfall 17.3  
Snow Depth -    
Sea Level Pressure  
Sea Level Pressure 29.98 in    
Wind  
Wind Speed 13 mph (SW)    
Max Wind Speed 23 mph    
Max Gust Speed 33 mph    
Visibility 10 miles    
Events      
T = Trace of Precipitation, MM = Missing Value Source: NWS Daily Summary

Daily Weather History Graph

Daily Weather History Graph

Search for Another Location

Airport or City:

Trip Planner

Search our weather history database for the weather conditions in past years. The results will help you decide how hot, cold, wet, or windy it might be!

Date:

Astronomy

Feb. 18, 2014 Rise Set
Actual Time 7:25 AM EST 6:17 PM EST
Civil Twilight 6:58 AM EST 6:45 PM EST
Nautical Twilight 6:27 AM EST 7:16 PM EST
Astronomical Twilight 5:55 AM EST 7:47 PM EST
Moon 10:08 PM EST (2/18) 8:58 AM EST (2/18)
Length of Visible Light 11h 46m
Length of Day
10h 51m
Waning Gibbous, 87% of the Moon is Illuminated
Feb 18
Waning Gibbous
Feb 22
Last Quarter
Mar 1
New
Mar 8
First Quarter
Mar 16
Full

Hourly Weather History & Observations

Time (EST) Temp. Windchill Dew Point Humidity Pressure Visibility Wind Dir Wind Speed Gust Speed Precip Events Conditions
12:15 AM 37.6 °F 28.1 °F 29.7 °F 73% 29.90 in 10.0 mi WSW 17.3 mph 26.5 mph N/A   Overcast
12:35 AM 37.6 °F 27.1 °F 29.3 °F 72% 29.90 in 10.0 mi WSW 20.7 mph 25.3 mph N/A   Overcast
12:55 AM 37.6 °F 26.9 °F 29.3 °F 72% 29.89 in 10.0 mi WSW 21.9 mph 32.2 mph N/A   Mostly Cloudy
1:15 AM 37.6 °F 27.7 °F 29.7 °F 73% 29.91 in 10.0 mi West 18.4 mph 26.5 mph N/A   Mostly Cloudy
1:35 AM 37.6 °F 26.6 °F 29.5 °F 73% 29.90 in 10.0 mi WSW 23.0 mph 28.8 mph N/A   Overcast
1:55 AM 37.6 °F 26.6 °F 29.5 °F 73% 29.91 in 10.0 mi WSW 23.0 mph 33.4 mph N/A   Mostly Cloudy
2:15 AM 37.6 °F 28.1 °F 28.8 °F 70% 29.92 in 10.0 mi WSW 17.3 mph 27.6 mph N/A   Mostly Cloudy
2:35 AM 37.6 °F 27.1 °F 28.4 °F 69% 29.92 in 10.0 mi WSW 20.7 mph 27.6 mph N/A   Mostly Cloudy
2:55 AM 37.6 °F 26.9 °F 27.5 °F 67% 29.93 in 10.0 mi WSW 21.9 mph 29.9 mph N/A   Scattered Clouds
3:15 AM 37.6 °F 27.1 °F 27.9 °F 68% 29.94 in 10.0 mi WSW 20.7 mph 27.6 mph N/A   Clear
3:35 AM 37.6 °F 28.4 °F 28.2 °F 69% 29.95 in 10.0 mi WSW 16.1 mph 23.0 mph N/A   Clear
3:55 AM 37.6 °F 28.8 °F 28.4 °F 69% 29.96 in 10.0 mi WSW 15.0 mph 21.9 mph N/A   Clear
4:15 AM 37.6 °F 29.1 °F 28.4 °F 69% 29.97 in 10.0 mi WSW 13.8 mph - N/A   Clear
4:35 AM 37.6 °F 29.1 °F 28.2 °F 69% 29.98 in 10.0 mi WSW 13.8 mph 21.9 mph N/A   Clear
4:55 AM 35.6 °F 27.1 °F 26.4 °F 69% 29.99 in 10.0 mi WSW 12.7 mph 19.6 mph N/A   Clear
5:15 AM 35.6 °F 25.9 °F 26.2 °F 69% 30.00 in 10.0 mi WSW 16.1 mph 21.9 mph N/A   Clear
5:35 AM 36.7 °F 28.0 °F 26.8 °F 67% 30.03 in 10.0 mi West 13.8 mph 20.7 mph N/A   Clear
5:55 AM 37.0 °F 29.8 °F 26.8 °F 66% 30.03 in 10.0 mi WSW 10.4 mph - N/A   Clear
6:15 AM 36.5 °F 28.7 °F 26.4 °F 67% 30.04 in 10.0 mi WSW 11.5 mph - N/A   Clear
6:35 AM 35.1 °F 29.3 °F 25.5 °F 68% 30.05 in 10.0 mi WSW 6.9 mph - N/A   Clear
6:55 AM 32.5 °F 26.2 °F 24.6 °F 73% 30.06 in 10.0 mi WSW 6.9 mph - N/A   Clear
7:15 AM 33.1 °F 26.9 °F 24.8 °F 72% 30.07 in 10.0 mi SW 6.9 mph - N/A   Clear
7:35 AM 32.7 °F 26.4 °F 24.6 °F 72% 30.07 in 10.0 mi SW 6.9 mph - N/A   Clear
7:55 AM 32.5 °F 25.5 °F 24.8 °F 73% 30.09 in 10.0 mi SW 8.1 mph - N/A   Clear
8:15 AM 32.5 °F 25.5 °F 25.2 °F 74% 30.09 in 10.0 mi SW 8.1 mph - N/A   Clear
8:35 AM 32.5 °F 24.2 °F 25.2 °F 74% 30.10 in 10.0 mi SW 10.4 mph - N/A   Clear
8:55 AM 35.1 °F 27.9 °F 27.1 °F 73% 30.11 in 10.0 mi SW 9.2 mph - N/A   Clear
9:15 AM 35.1 °F 27.4 °F 26.1 °F 70% 30.11 in 10.0 mi SW 10.4 mph - N/A   Clear
9:35 AM 37.6 °F 30.5 °F 27.9 °F 68% 30.11 in 10.0 mi SW 10.4 mph - N/A   Clear
9:55 AM 37.6 °F 30.0 °F 26.6 °F 65% 30.11 in 10.0 mi WSW 11.5 mph - N/A   Clear
10:15 AM 37.9 °F 30.5 °F 26.4 °F 63% 30.12 in 10.0 mi WSW 11.5 mph - N/A   Clear
10:35 AM 38.8 °F 32.1 °F 26.2 °F 61% 30.12 in 10.0 mi WSW 10.4 mph - N/A   Clear
10:55 AM 40.1 °F 32.0 °F 25.0 °F 55% 30.13 in 10.0 mi WSW 15.0 mph - N/A   Clear
11:15 AM 40.1 °F 33.2 °F 26.1 °F 57% 30.12 in 10.0 mi SW 11.5 mph - N/A   Clear
11:35 AM 40.5 °F 34.6 °F 26.2 °F 57% 30.11 in 10.0 mi SSW 9.2 mph - N/A   Clear
11:55 AM 41.4 °F 35.2 °F 25.3 °F 53% 30.11 in 10.0 mi SSW 10.4 mph - N/A   Clear
12:15 PM 41.5 °F 35.9 °F 25.0 °F 52% 30.10 in 10.0 mi SSW 9.2 mph - N/A   Clear
12:35 PM 43.3 °F 38.6 °F 25.0 °F 48% 30.08 in 10.0 mi SSW 8.1 mph - N/A   Clear
12:55 PM 45.1 °F 41.4 °F 26.2 °F 48% 30.07 in 10.0 mi SSW 6.9 mph - N/A   Clear
1:15 PM 46.6 °F - 25.9 °F 44% 30.06 in 10.0 mi SW 6.9 mph - N/A   Clear
1:35 PM 47.7 °F - 26.2 °F 43% 30.05 in 10.0 mi SW 6.9 mph - N/A   Clear
1:55 PM 47.7 °F - 23.5 °F 39% 30.04 in 10.0 mi South 8.1 mph - N/A   Clear
2:15 PM 47.7 °F - 22.5 °F 37% 30.03 in 10.0 mi SSW 9.2 mph - N/A   Clear
2:35 PM 47.7 °F - 24.1 °F 40% 30.03 in 10.0 mi SSW 9.2 mph - N/A   Clear
2:55 PM 50.2 °F - 23.0 °F 35% 30.01 in 10.0 mi SSW 9.2 mph - N/A   Clear
3:15 PM 49.1 °F - 21.4 °F 34% 30.00 in 10.0 mi South 11.5 mph - N/A   Clear
3:35 PM 50.0 °F - 21.4 °F 32% 29.99 in 10.0 mi South 10.4 mph - N/A   Clear
3:55 PM 48.9 °F - 21.0 °F 33% 29.98 in 10.0 mi SSW 11.5 mph 17.3 mph N/A   Clear
4:15 PM 48.4 °F - 21.2 °F 34% 29.98 in 10.0 mi SSW 9.2 mph - N/A   Clear
4:35 PM 47.7 °F - 20.5 °F 34% 29.97 in 10.0 mi South 9.2 mph - N/A   Clear
4:55 PM 49.8 °F - 20.8 °F 32% 29.94 in 10.0 mi South 8.1 mph - N/A   Clear
5:15 PM 48.4 °F - 20.1 °F 33% 29.93 in 10.0 mi South 8.1 mph - N/A   Clear
5:35 PM 48.9 °F - 21.2 °F 34% 29.93 in 10.0 mi South 9.2 mph - N/A   Clear
5:55 PM 47.7 °F - 21.7 °F 36% 29.92 in 10.0 mi South 8.1 mph - N/A   Clear
6:15 PM 47.7 °F - 23.0 °F 38% 29.93 in 10.0 mi South 5.8 mph - N/A   Clear
6:35 PM 47.7 °F - 24.1 °F 40% 29.91 in 10.0 mi South 5.8 mph - N/A   Clear
6:55 PM 47.7 °F - 24.6 °F 41% 29.92 in 10.0 mi Calm Calm - N/A   Clear
7:15 PM 42.3 °F - 25.2 °F 51% 29.92 in 10.0 mi Calm Calm - N/A   Clear
7:35 PM 38.8 °F - 25.9 °F 60% 29.90 in 10.0 mi Calm Calm - N/A   Clear
7:55 PM 36.3 °F - 27.3 °F 70% 29.91 in 10.0 mi Calm Calm - N/A   Clear
8:15 PM 35.8 °F - 26.6 °F 69% 29.91 in 10.0 mi Calm Calm - N/A   Clear
8:35 PM 33.8 °F - 27.5 °F 78% 29.90 in 10.0 mi Calm Calm - N/A   Clear
8:55 PM 33.8 °F - 27.3 °F 77% 29.89 in 10.0 mi Calm Calm - N/A   Clear
9:15 PM 32.5 °F - 26.6 °F 79% 29.88 in 10.0 mi Calm Calm - N/A   Clear
9:35 PM 32.5 °F - 27.1 °F 80% 29.87 in 10.0 mi Calm Calm - N/A   Clear
9:55 PM 32.5 °F - 27.1 °F 80% 29.87 in 10.0 mi Calm Calm - N/A   Clear
10:15 PM 32.5 °F - 27.3 °F 81% 29.85 in 10.0 mi Calm Calm - N/A   Clear
10:35 PM 32.5 °F - 27.0 °F 80% 29.84 in 10.0 mi Calm Calm - N/A   Clear
10:55 PM 32.5 °F - 28.0 °F 83% 29.83 in 10.0 mi Calm Calm - N/A   Scattered Clouds
11:15 PM 32.5 °F - 27.1 °F 80% 29.83 in 10.0 mi Calm Calm - N/A   Scattered Clouds
11:35 PM 33.4 °F 30.4 °F 28.2 °F 81% 29.82 in 10.0 mi SSW 3.5 mph - N/A   Scattered Clouds
11:55 PM 39.2 °F 33.6 °F 27.9 °F 64% 29.81 in 10.0 mi SSW 8.1 mph - N/A   Scattered Clouds